Regional Weather Roundup
Issued by NWS

Home | Current Version | Previous Version | Graphics & Text | Print | Product List | Glossary On
Versions: 1 2 3 4 5 6 7 8 9 10 11 12 13 14 15 16 17 18 19 20 21 22 23 24 25 26 27 28 29 30 31 32 33 34 35 36 37 38 39 40 41 42 43 44 45 46 47 48 49 50
931
ASUS45 KSLC 121310
RWRUT

UTAH REGIONAL WEATHER ROUNDUP
NATIONAL WEATHER SERVICE SALT LAKE CITY UT
600 AM MST FRI FEB 12 2016

UTZ001>011-023>025-121400-

NORTHERN UTAH

CITY           SKY/WX    TMP DP  RH WIND       PRES   REMARKS
BRIGHAM CITY   CLOUDY    25  23  93 CALM      30.43F VSB 1/2
HILL AFB       PTCLDY    25  23  93 CALM      30.40S FOG
LOGAN          FOG       20  20 100 CALM      30.42S VSB 1/4
OGDEN          FOG       25  25 100 NW3       30.41S VSB 1/4
PROVO AIRPORT    N/A     19  18  93 CALM      30.41S VSB<1/4
SALT LAKE CITY CLOUDY    29  27  92 NW5       30.43R FOG     WCI  24
VERNAL         CLOUDY    16  12  84 W5        30.43R FOG     WCI   9
WENDOVER       CLOUDY    28  25  86 NE3       30.43S
HEBER CITY     PTCLDY    10   9  92 CALM      30.39S
WEST JORDAN    CLOUDY    27  27 100 NW6       30.43R WCI  20

$$

UTZ012>022-026-027-121400-

SOUTHERN/CENTRAL UTAH

CITY           SKY/WX    TMP DP  RH WIND       PRES   REMARKS
BLANDING       PTCLDY    31  22  71 NE5       30.47S WCI  26
BRYCE CANYON   PTCLDY    20  10  65 W12       30.43S WCI   8
CEDAR CITY     PTCLDY    18  15  88 E3        30.36R
DELTA          CLOUDY    13  12  94 CALM      30.42R VSB<1/4
HANKSVILLE     MOCLDY    28  27  93 CALM      30.45R
MILFORD        FOG        6   4  91 S8        30.39S VSB 1/4 WCI  -7
MOAB/CYNLANDS  PTCLDY    29  25  85 CALM      30.41R
PRICE          PTCLDY    25  18  74 NE6       30.41R WCI  18
ST GEORGE      MOSUNNY   37  23  56 CALM      30.34R
KANAB          CLEAR     34  27  75 N7        30.39S WCI  28

$$

REGIONAL REPORTS     COLORADO/ARIZONA

CITY           SKY/WX    TMP DP  RH WIND       PRES   REMARKS
CRAIG, CO      CLOUDY     3  -1  83 CALM      30.42S
GRAND JUNCTION CLOUDY    25  22  88 E6        30.42S WCI  18
RIFLE          CLOUDY    17  11  77 CALM      30.46R
MONTROSE       CLOUDY    23  16  74 S7        30.45S WCI  15
CORTEZ         CLOUDY    19  15  84 CALM      30.42R
PAGE, AZ       PTCLDY    34  28  79 CALM      30.38R
GRAND CANYON   PTCLDY    22  17  81 CALM      30.39F
KINGMAN        CLEAR     34  23  64 CALM      30.24S
FLAGSTAFF      PTCLDY    21  17  84 CALM      30.41R

$$

REGIONAL REPORTS    NEVADA/IDAHO/WYOMING

CITY           SKY/WX    TMP DP  RH WIND       PRES   REMARKS
LAS VEGAS, NV  CLEAR     48  23  37 W6        30.20R
ELY            MOCLDY    17   9  70 S16       30.37R WCI   2
ELKO           CLOUDY    11   8  88 NE6       30.39R WCI   1
POCATELLO, ID  CLOUDY    24  19  81 NE5       30.36S WCI  18
BURLEY         CLEAR     28  24  85 CALM      30.30S
EVANSTON, WY   CLOUDY    34  14  43 S7        30.37S WCI  28
ROCK SPRINGS   CLOUDY    32  16  51 W7        30.36S WCI  26

$$




USA.gov is the U.S. government's official web portal to all federal, state and local government web resources and services.